Hammond, LA

7:36 AM CST on December 13, 2019 (GMT -0600)
Hammond Municipal

Weather History for KHDC - October, 2019

Change the Weather History Date:

Friday, October 4, 2019

  Actual Average (KMSY) Record (KMSY)
Temperature  
Mean Temperature 82 °F -  
Max Temperature 96 °F 84 °F 97 °F (2019)
Min Temperature 68 °F 62 °F 49 °F (1974)
Cooling Degree Days 17    
Growing Degree Days 32 (Base 50)    
Moisture  
Dew Point 69 °F    
Average Humidity 73    
Maximum Humidity 100    
Minimum Humidity 39    
Precipitation  
Precipitation 0.00 in - - ()
Sea Level Pressure  
Sea Level Pressure 30.01 in    
Wind  
Wind Speed 3 mph (NE)    
Max Wind Speed 16 mph    
Max Gust Speed 24 mph    
Visibility 10 miles    
Events Thunderstorm    
Averages and records for this station are not official NWS values.
T = Trace of Precipitation, MM = Missing Value Source: NWS Daily Summary

Daily Weather History Graph

Daily Weather History Graph

Search for Another Location

Airport or City:

Astronomy

Oct. 04, 2019 Rise Set
Actual Time 6:56 AM CDT 6:43 PM CDT
Civil Twilight 6:32 AM CDT 7:07 PM CDT
Nautical Twilight 6:04 AM CDT 7:35 PM CDT
Astronomical Twilight 5:36 AM CDT 8:03 PM CDT
Moon 1:06 PM CDT (10/4) 11:34 PM CDT (10/4)
Length of Visible Light 12h 34m
Length of Day
11h 46m
Waxing Crescent, 40% of the Moon is Illuminated
Oct 4
Waxing Crescent
Oct 5
First Quarter
Oct 13
Full
Oct 21
Last Quarter
Oct 27
New

Hourly Weather History & Observations

Time (CDT) Temp. Heat Index Dew Point Humidity Pressure Visibility Wind Dir Wind Speed Gust Speed Precip Events Conditions
12:15 AM 75.2 °F - 71.6 °F 89% 30.03 in 10.0 mi Calm Calm - N/A   Clear
12:35 AM 73.4 °F - 69.8 °F 88% 30.03 in 10.0 mi Calm Calm - N/A   Clear
12:55 AM 73.4 °F - 71.6 °F 94% 30.02 in 10.0 mi Calm Calm - N/A   Clear
1:15 AM 73.4 °F - 69.8 °F 88% 30.02 in 10.0 mi Calm Calm - N/A   Clear
1:35 AM 71.6 °F - 69.8 °F 94% 30.02 in 10.0 mi Calm Calm - N/A   Clear
2:15 AM 71.6 °F - 69.8 °F 94% 30.02 in 10.0 mi Calm Calm - N/A   Scattered Clouds
2:35 AM 71.6 °F - 69.8 °F 94% 30.03 in 10.0 mi Calm Calm - N/A   Scattered Clouds
2:55 AM 71.6 °F - 69.8 °F 94% 30.03 in 10.0 mi Calm Calm - N/A   Scattered Clouds
3:15 AM 71.6 °F - 69.8 °F 94% 30.01 in 10.0 mi Calm Calm - N/A   Scattered Clouds
3:55 AM 71.6 °F - 69.8 °F 94% 30.01 in 10.0 mi Calm Calm - N/A   Clear
4:15 AM 71.6 °F - 69.8 °F 94% 30.01 in 10.0 mi Calm Calm - N/A   Clear
4:35 AM 71.6 °F - 69.8 °F 94% 30.01 in 10.0 mi NNW 3.5 mph - N/A   Clear
4:55 AM 69.8 °F - 69.8 °F 100% 30.01 in 7.0 mi North 3.5 mph - N/A   Clear
5:15 AM 69.8 °F - 68.0 °F 94% 30.01 in 10.0 mi Calm Calm - N/A   Clear
5:35 AM 71.6 °F - 69.8 °F 94% 30.02 in 10.0 mi Calm Calm - N/A   Clear
5:55 AM 69.8 °F - 69.8 °F 100% 30.02 in 10.0 mi NNW 3.5 mph - N/A   Clear
6:15 AM 69.8 °F - 68.0 °F 94% 30.01 in 10.0 mi Calm Calm - N/A   Clear
6:35 AM 68.0 °F - 68.0 °F 100% 30.02 in 7.0 mi North 4.6 mph - N/A   Clear
6:55 AM 69.8 °F - 68.0 °F 94% 30.02 in 10.0 mi NNE 3.5 mph - N/A   Clear
7:15 AM 69.8 °F - 68.0 °F 94% 30.03 in 7.0 mi North 4.6 mph - N/A   Clear
7:35 AM 71.6 °F - 69.8 °F 94% 30.04 in 10.0 mi North 4.6 mph - N/A   Clear
7:55 AM 71.6 °F - 69.8 °F 94% 30.04 in 10.0 mi Calm Calm - N/A   Clear
8:15 AM 73.4 °F - 69.8 °F 88% 30.04 in 10.0 mi NNE 4.6 mph - N/A   Clear
8:35 AM 77.0 °F - 69.8 °F 78% 30.05 in 10.0 mi NE 3.5 mph - N/A   Clear
8:55 AM 77.0 °F - 69.8 °F 78% 30.05 in 10.0 mi NE 4.6 mph - N/A   Clear
9:15 AM 78.8 °F - 69.8 °F 74% 30.05 in 10.0 mi ENE 3.5 mph - N/A   Clear
9:35 AM 80.6 °F 83.9 °F 69.8 °F 70% 30.04 in 10.0 mi ENE 4.6 mph - N/A   Clear
9:55 AM 82.4 °F 86.3 °F 69.8 °F 66% 30.05 in 10.0 mi East 5.8 mph - N/A   Clear
10:15 AM 84.2 °F 88.4 °F 69.8 °F 62% 30.05 in 10.0 mi East 4.6 mph - N/A   Clear
10:35 AM 86.0 °F 90.4 °F 69.8 °F 58% 30.04 in 10.0 mi SE 3.5 mph - N/A   Clear
10:55 AM 87.8 °F 92.6 °F 69.8 °F 55% 30.03 in 10.0 mi Calm Calm - N/A   Clear
11:15 AM 87.8 °F 92.6 °F 69.8 °F 55% 30.03 in 10.0 mi NNE 3.5 mph - N/A   Clear
11:35 AM 87.8 °F 92.6 °F 69.8 °F 55% 30.03 in 10.0 mi Calm Calm - N/A   Clear
11:55 AM 89.6 °F 94.7 °F 69.8 °F 52% 30.03 in 10.0 mi East 3.5 mph - N/A   Clear
12:15 PM 89.6 °F 93.4 °F 68.0 °F 49% 30.02 in 10.0 mi East 4.6 mph - N/A   Clear
12:35 PM 91.4 °F 96.8 °F 69.8 °F 49% 30.01 in 10.0 mi Calm Calm - N/A   Clear
12:55 PM 91.4 °F 96.8 °F 69.8 °F 49% 30.00 in 10.0 mi East 3.5 mph - N/A   Clear
1:15 PM 91.4 °F 96.8 °F 69.8 °F 49% 30.00 in 10.0 mi NE 3.5 mph - N/A   Clear
1:35 PM 91.4 °F 96.8 °F 69.8 °F 49% 29.98 in 10.0 mi East 3.5 mph - N/A   Clear
1:55 PM 95.0 °F 101.3 °F 69.8 °F 44% 29.97 in 10.0 mi SSE 3.5 mph - N/A   Clear
2:15 PM 95.0 °F 99.5 °F 68.0 °F 41% 29.97 in 10.0 mi NE 4.6 mph - N/A   Clear
2:35 PM 95.0 °F 99.5 °F 68.0 °F 41% 29.96 in 10.0 mi ESE 5.8 mph - N/A   Clear
2:55 PM 95.0 °F 99.5 °F 68.0 °F 41% 29.95 in 10.0 mi ESE 4.6 mph - N/A   Clear
3:15 PM 95.0 °F 99.5 °F 68.0 °F 41% 29.95 in 10.0 mi SSE 4.6 mph - N/A   Scattered Clouds
3:35 PM 96.8 °F 101.8 °F 68.0 °F 39% 29.94 in 10.0 mi SSE 9.2 mph - N/A   Scattered Clouds
3:55 PM 95.0 °F 101.3 °F 69.8 °F 44% 29.93 in 10.0 mi SSW 10.4 mph - N/A   Mostly Cloudy
4:15 PM 95.0 °F 103.2 °F 71.6 °F 47% 29.94 in 10.0 mi SSW 6.9 mph - N/A   Overcast
4:35 PM 91.4 °F 95.4 °F 68.0 °F 46% 29.95 in 10.0 mi NNW 3.5 mph - N/A   Scattered Clouds
4:55 PM 89.6 °F 93.4 °F 68.0 °F 49% 29.95 in 10.0 mi East 9.2 mph - N/A Thunderstorm Scattered Clouds
5:15 PM 87.8 °F 91.4 °F 68.0 °F 52% 29.97 in 10.0 mi ESE 16.1 mph 24.2 mph N/A Thunderstorm Thunderstorm
5:35 PM 82.4 °F 85.4 °F 68.0 °F 62% 29.96 in 10.0 mi ENE 11.5 mph 18.4 mph N/A Thunderstorm Thunderstorm
5:55 PM 82.4 °F 84.6 °F 66.2 °F 58% 29.96 in 10.0 mi NW 5.8 mph - N/A Thunderstorm Scattered Clouds
6:15 PM 80.6 °F 83.2 °F 68.0 °F 65% 29.96 in 10.0 mi WNW 4.6 mph - N/A   Scattered Clouds
6:35 PM 80.6 °F 83.2 °F 68.0 °F 65% 29.98 in 10.0 mi NNW 11.5 mph 16.1 mph N/A   Clear
6:55 PM 77.0 °F - 69.8 °F 78% 29.99 in 10.0 mi NNW 6.9 mph - N/A   Scattered Clouds
7:15 PM 77.0 °F - 68.0 °F 74% 30.00 in 10.0 mi North 5.8 mph - N/A   Scattered Clouds
7:35 PM 77.0 °F - 69.8 °F 78% 29.99 in 10.0 mi North 3.5 mph - N/A   Scattered Clouds
7:55 PM 77.0 °F - 69.8 °F 78% 29.99 in 10.0 mi North 4.6 mph - N/A   Scattered Clouds
8:15 PM 73.4 °F - 69.8 °F 88% 29.99 in 10.0 mi North 3.5 mph - N/A   Mostly Cloudy
8:35 PM 77.0 °F - 69.8 °F 78% 30.00 in 10.0 mi NNE 4.6 mph - N/A   Mostly Cloudy
8:55 PM 77.0 °F - 68.0 °F 74% 30.00 in 10.0 mi Calm Calm - N/A   Scattered Clouds
9:15 PM 73.4 °F - 68.0 °F 83% 30.00 in 10.0 mi Calm Calm - N/A   Clear
9:35 PM 73.4 °F - 68.0 °F 83% 30.01 in 10.0 mi NNE 5.8 mph - N/A   Clear
9:55 PM 75.2 °F - 68.0 °F 78% 30.02 in 10.0 mi North 6.9 mph - N/A   Mostly Cloudy
10:15 PM 75.2 °F - 68.0 °F 78% 30.02 in 10.0 mi NNE 5.8 mph - N/A   Scattered Clouds
10:35 PM 73.4 °F - 68.0 °F 83% 30.02 in 10.0 mi NNE 6.9 mph - N/A   Clear
10:55 PM 73.4 °F - 68.0 °F 83% 30.03 in 10.0 mi North 5.8 mph - N/A   Clear
11:15 PM 73.4 °F - 68.0 °F 83% 30.03 in 10.0 mi North 6.9 mph - N/A   Clear
11:55 PM 71.6 °F - 68.0 °F 88% 30.02 in 10.0 mi NNE 3.5 mph - N/A   Clear